Weather History for Ft Lauderdale, FL

Change the Weather History Date:

Tuesday, July 30, 2013

  Actual Average Record
Temperature  
Mean Temperature 83 °F 85 °F  
Max Temperature 88 °F 91 °F 97 °F (1999)
Min Temperature 78 °F 79 °F 69 °F (1928)
Degree Days  
Heating Degree Days 0 0  
Month to date heating degree days 0 0  
Since 1 June heating degree days 0 0  
Since 1 July heating degree days 0 0  
Cooling Degree Days 18 20  
Month to date cooling degree days 505 581  
Year to date cooling degree days 2445 2542  
Since 1 June cooling degree days 1049 1124  
Growing Degree Days 33 (Base 50)    
Moisture  
Dew Point 76 °F    
Average Humidity 80    
Maximum Humidity 91    
Minimum Humidity 68    
Precipitation  
Precipitation 0.21 in 0.18 in 2.50 in (1933)
Month to date precipitation 15.49 5.80  
Year to date precipitation 55.00 33.45  
Snow  
Snow 0.00 in - - ()
Month to date snowfall 0.0  
Since 1 June snowfall 0.0  
Since 1 July snowfall 0.0  
Snow Depth 0.00 in    
Sea Level Pressure  
Sea Level Pressure 30.12 in    
Wind  
Wind Speed 10 mph (East)    
Max Wind Speed 20 mph    
Max Gust Speed 23 mph    
Visibility 9 miles    
Events Rain , Thunderstorm    
T = Trace of Precipitation, MM = Missing Value Source: NWS Daily Summary

Daily Weather History Graph

Daily Weather History Graph

Search for Another Location

Airport:

Trip Planner

Search our weather history database for the weather conditions in past years. The results will help you decide how hot, cold, wet, or windy it might be!

Date:

Astronomy

Jul. 30, 2013 Rise Set
Actual Time 6:45 AM EDT 8:08 PM EDT
Civil Twilight 6:20 AM EDT 8:33 PM EDT
Nautical Twilight 5:51 AM EDT 9:02 PM EDT
Astronomical Twilight 5:20 AM EDT 9:33 PM EDT
Moon 12:57 AM EDT (7/30) 2:28 PM EDT (7/30)
Length of Visible Light 14h 12m
Length of Day
13h 22m
Last Quarter, 41% of the Moon is Illuminated
Jul 30
Last Quarter
Aug 6
New
Aug 14
First Quarter
Aug 20
Full
Aug 28
Last Quarter

Hourly Weather History & Observations

Time (EDT) Temp. Heat Index Dew Point Humidity Pressure Visibility Wind Dir Wind Speed Gust Speed Precip Events Conditions
12:53 AM 82.9 °F 91.8 °F 77.0 °F 82% 30.13 in 10.0 mi East 9.2 mph - N/A   Scattered Clouds
1:53 AM 82.9 °F 91.8 °F 77.0 °F 82% 30.12 in 10.0 mi East 10.4 mph - N/A   Scattered Clouds
2:53 AM 82.0 °F 91.0 °F 78.1 °F 88% 30.11 in 10.0 mi ESE 6.9 mph - 0.03 in   Scattered Clouds
3:53 AM 82.0 °F 90.2 °F 77.0 °F 85% 30.10 in 10.0 mi SE 8.1 mph - N/A   Scattered Clouds
4:53 AM 81.0 °F 86.7 °F 75.0 °F 82% 30.09 in 6.0 mi SSE 12.7 mph 17.3 mph 0.02 in   Haze
5:53 AM 79.0 °F - 75.9 °F 90% 30.09 in 10.0 mi Calm Calm - 0.02 in   Scattered Clouds
6:53 AM 80.1 °F 85.4 °F 75.9 °F 87% 30.10 in 10.0 mi Calm Calm - N/A   Mostly Cloudy
7:53 AM 82.9 °F 91.8 °F 77.0 °F 82% 30.12 in 10.0 mi East 9.2 mph - N/A   Scattered Clouds
8:53 AM 82.9 °F 91.8 °F 77.0 °F 82% 30.14 in 10.0 mi East 5.8 mph - N/A   Partly Cloudy
9:41 AM 78.8 °F - 75.2 °F 89% 30.16 in 4.0 mi East 16.1 mph - 0.05 in Rain Heavy Rain
9:53 AM 78.1 °F - 73.9 °F 87% 30.17 in 5.0 mi East 11.5 mph - 0.06 in Rain Light Rain
10:00 AM 78.8 °F - 73.4 °F 83% 30.17 in 2.0 mi East 8.1 mph - 0.01 in   Mostly Cloudy
10:02 AM 78.8 °F - 75.2 °F 89% 30.17 in 3.0 mi East 5.8 mph - 0.02 in Rain , Thunderstorm Thunderstorms and Rain
10:24 AM 78.8 °F - 75.2 °F 89% 30.16 in 5.0 mi Calm Calm - 0.07 in Rain Light Rain
10:53 AM 80.1 °F 85.4 °F 75.9 °F 87% 30.17 in 10.0 mi SE 10.4 mph - 0.07 in   Scattered Clouds
11:53 AM 84.9 °F 96.6 °F 78.1 °F 80% 30.17 in 10.0 mi East 9.2 mph - 0.00 in   Scattered Clouds
12:53 PM 87.1 °F 98.8 °F 77.0 °F 72% 30.15 in 10.0 mi East 12.7 mph - N/A   Scattered Clouds
1:53 PM 87.1 °F 97.3 °F 75.9 °F 69% 30.14 in 10.0 mi East 13.8 mph 21.9 mph N/A   Scattered Clouds
2:53 PM 88.0 °F 100.2 °F 77.0 °F 70% 30.12 in 10.0 mi ESE 11.5 mph - N/A   Scattered Clouds
3:53 PM 87.1 °F 98.8 °F 77.0 °F 72% 30.11 in 10.0 mi East 13.8 mph - N/A   Scattered Clouds
4:53 PM 87.1 °F 97.3 °F 75.9 °F 69% 30.10 in 10.0 mi East 11.5 mph - N/A   Scattered Clouds
5:53 PM 86.0 °F 95.1 °F 75.0 °F 70% 30.08 in 10.0 mi East 11.5 mph - 0.01 in   Partly Cloudy
6:53 PM 84.9 °F 94.1 °F 75.9 °F 74% 30.08 in 10.0 mi East 13.8 mph - N/A   Scattered Clouds
7:53 PM 84.0 °F 91.9 °F 75.0 °F 74% 30.10 in 10.0 mi East 9.2 mph - N/A   Scattered Clouds
8:53 PM 82.9 °F 90.2 °F 75.0 °F 77% 30.11 in 10.0 mi East 12.7 mph - N/A   Partly Cloudy
9:53 PM 82.9 °F 90.2 °F 75.0 °F 77% 30.12 in 10.0 mi East 9.2 mph - N/A   Scattered Clouds
10:53 PM 82.9 °F 90.8 °F 75.9 °F 79% 30.10 in 10.0 mi East 12.7 mph - N/A   Partly Cloudy
11:53 PM 82.9 °F 90.2 °F 75.0 °F 77% 30.10 in 10.0 mi East 11.5 mph - N/A   Partly Cloudy